Погода в Кубассах

Россия / Республика Татарстан     55°23′20″N   50°23′39″E
темп.,
°C
ветер,
м/с
пор.,
м/с
влажн.,
%
обл.,
%
осадки,
мм/ч
давл.,
гПа
погр.,
м
15 апреля, чт
чт1500:00+8ююв33885 0.0 102420
03:00+7ююв22935 0.0 102314
06:00+7юв23920 0.0 102241
09:00+10ююв34730 0.0 1022189
12:00+13ю24600 0.0 1020393
15:00+15ю23520 0.0 1019434
18:00+13всв11630 0.0 101810
21:00+10всв11690 0.0 101910
16 апреля, пт
пт1600:00+9всв11754 0.0 101910
03:00+8ссв46830 0.0 102079
06:00+6св6109424 0.0 1021239
09:00+9всв69776 0.0 1022390
12:00+12всв68676 0.0 1022630
15:00+13всв676229 0.0 1022805
18:00+10св610715 0.0 1023348
21:00+7св510835 0.0 1024235
17 апреля, сб
сб1700:00+6св511835 0.0 1024272
03:00+4св510855 0.0 1025233
06:00+4св510755 0.0 1026252
09:00+7св69560 0.0 1026485
12:00+10св68420 0.0 1025838
15:00+11св57380 0.0 1025983
18:00+8св35530 0.0 102493
21:00+5ссв48650 0.0 1025133
18 апреля, вс
вс1800:00+4ссв48740 0.0 1024132
03:00+2ссв37770 0.0 1024101
06:00+3ссв38760 0.0 1024159
09:00+7с57590 0.0 1024660
12:00+10ссв685056 0.0 10241318
15:00+7ссв9115962 0.0 1026859
18:00+5св610491 0.0 1028815
21:00+2св510565 0.0 1030256
19 апреля, пн
пн1900:000св511560 0.0 1032323
03:00−1св510610 0.0 1034260
06:00−1св58610 0.0 1037378
09:00+3всв56434 0.0 10381049
12:00+4всв45405 0.0 10371211
15:00+5всв34394 0.0 10371221
18:00+4в22494 0.0 103724
21:00+1вюв22540 0.0 103811